| time (UTC) | temp C | wind direction | speed KPH | gust KPH | rain 1hr cm | rain 24hr cm | rain mn cm | humidity % | barometer mb |
| 20260509021555 | 12 | 296 | 0.0 | 3.2 | 0.00 | 0.00 | 0.00 | 89 | 1010.5 |
| 20260509020054 | 12 | 296 | 0.0 | 0.0 | 0.00 | 0.00 | 0.00 | 88 | 1010.0 |
| 20260509014554 | 12 | 296 | 0.0 | 1.6 | 0.00 | 0.00 | 0.00 | 86 | 1009.9 |
| 20260509013056 | 13 | 296 | 0.0 | 3.2 | 0.00 | 0.00 | 0.00 | 85 | 1009.7 |
| 20260509011553 | 13 | 296 | 0.0 | 1.6 | 0.00 | 0.00 | 0.00 | 82 | 1009.6 |
| 20260509010052 | 13 | 296 | 0.0 | 6.4 | 0.00 | 0.00 | 0.00 | 79 | 1009.6 |
| 20260509004608 | 14 | 311 | 3.2 | 9.7 | 0.00 | 0.00 | 0.00 | 77 | 1009.7 |
| 20260509003052 | 14 | 290 | 4.8 | 9.7 | 0.00 | 0.00 | 0.00 | 76 | 1009.4 |
| 20260509001554 | 13 | 285 | 1.6 | 3.2 | 0.00 | 0.00 | 0.00 | 82 | 1009.2 |
| 20260509000050 | 14 | 281 | 1.6 | 4.8 | 0.00 | 0.00 | 0.00 | 84 | 1009.2 |
| 20260508234550 | 14 | 207 | 0.0 | 0.0 | 0.00 | 0.00 | 0.00 | 82 | 1009.1 |
| 20260508233049 | 14 | 207 | 0.0 | 0.0 | 0.00 | 0.00 | 0.00 | 81 | 1009.0 |
| 20260508231550 | 15 | 207 | 0.0 | 0.0 | 0.00 | 0.00 | 0.00 | 77 | 1009.2 |
| 20260508230051 | 15 | 207 | 0.0 | 1.6 | 0.00 | 0.00 | 0.00 | 74 | 1009.1 |
| 20260508224551 | 16 | 207 | 0.0 | 0.0 | 0.00 | 0.00 | 0.00 | 70 | 1009.0 |
| 20260508223050 | 16 | 207 | 0.0 | 0.0 | 0.00 | 0.00 | 0.00 | 66 | 1008.8 |
| 20260508221550 | 17 | 207 | 0.0 | 0.0 | 0.00 | 0.00 | 0.00 | 63 | 1008.9 |
| 20260508220044 | 17 | 207 | 0.0 | 0.0 | 0.00 | 0.00 | 0.00 | 56 | 1008.9 |
| 20260508214558 | 18 | 207 | 0.0 | 0.0 | 0.00 | 0.00 | 0.00 | 54 | 1008.9 |
| 20260508213042 | 18 | 188 | 0.0 | 0.0 | 0.00 | 0.00 | 0.00 | 51 | 1009.0 |
| 20260508211541 | 18 | 209 | 0.0 | 1.6 | 0.00 | 0.00 | 0.00 | 50 | 1009.1 |
| 20260508210041 | 18 | 168 | 0.0 | 8.0 | 0.00 | 0.00 | 0.00 | 49 | 1009.2 |
| 20260508204538 | 18 | 182 | 1.6 | 8.0 | 0.00 | 0.00 | 0.00 | 49 | 1009.4 |
| 20260508203036 | 18 | 167 | 1.6 | 11.3 | 0.00 | 0.00 | 0.00 | 49 | 1009.7 |
| 20260508201533 | 18 | 186 | 4.8 | 11.3 | 0.00 | 0.00 | 0.00 | 48 | 1009.9 |
| 20260508200040 | 18 | 173 | 3.2 | 8.0 | 0.00 | 0.00 | 0.00 | 49 | 1010.0 |
| 20260508194532 | 18 | 189 | 1.6 | 11.3 | 0.00 | 0.00 | 0.00 | 47 | 1010.1 |
| 20260508193040 | 18 | 260 | 3.2 | 9.7 | 0.00 | 0.00 | 0.00 | 46 | 1010.1 |
| 20260508191534 | 18 | 155 | 1.6 | 22.5 | 0.00 | 0.00 | 0.00 | 44 | 1010.4 |
| 20260508190046 | 20 | 192 | 8.0 | 22.5 | 0.00 | 0.00 | 0.00 | 44 | 1010.6 |
| 20260508184531 | 18 | 188 | 6.4 | 20.9 | 0.00 | 0.00 | 0.00 | 47 | 1010.8 |
| 20260508183033 | 18 | 205 | 6.4 | 17.7 | 0.00 | 0.00 | 0.00 | 48 | 1011.1 |
| 20260508181520 | 18 | 231 | 6.4 | 14.5 | 0.00 | 0.00 | 0.00 | 49 | 1011.3 |
| 20260508180018 | 18 | 293 | 3.2 | 14.5 | 0.00 | 0.00 | 0.00 | 50 | 1011.6 |
| 20260508174515 | 18 | 209 | 8.0 | 17.7 | 0.00 | 0.00 | 0.00 | 49 | 1011.8 |
| 20260508173015 | 17 | 221 | 8.0 | 17.7 | 0.00 | 0.00 | 0.00 | 49 | 1012.0 |
| 20260508171517 | 18 | 219 | 4.8 | 16.1 | 0.00 | 0.00 | 0.00 | 48 | 1012.3 |
| 20260508170012 | 19 | 194 | 8.0 | 17.7 | 0.00 | 0.00 | 0.00 | 47 | 1012.4 |
| 20260508164518 | 18 | 138 | 12.9 | 29.0 | 0.00 | 0.00 | 0.00 | 47 | 1012.6 |
| 20260508163012 | 18 | 269 | 6.4 | 24.1 | 0.00 | 0.00 | 0.00 | 48 | 1012.9 |
| 20260508161507 | 18 | 167 | 9.7 | 25.7 | 0.00 | 0.00 | 0.00 | 48 | 1013.0 |
| 20260508160002 | 18 | 226 | 6.4 | 20.9 | 0.00 | 0.00 | 0.00 | 48 | 1013.1 |
| 20260508154601 | 17 | 214 | 11.3 | 20.9 | 0.00 | 0.00 | 0.00 | 49 | 1013.1 |
| 20260508153059 | 17 | 207 | 3.2 | 29.0 | 0.00 | 0.00 | 0.00 | 51 | 1013.3 |
| 20260508151552 | 16 | 202 | 4.8 | 27.4 | 0.00 | 0.00 | 0.00 | 52 | 1013.5 |
| 20260508150048 | 15 | 202 | 4.8 | 16.1 | 0.00 | 0.00 | 0.00 | 56 | 1013.6 |
| 20260508144551 | 14 | 205 | 0.0 | 14.5 | 0.00 | 0.00 | 0.00 | 58 | 1013.6 |
| 20260508143047 | 14 | 208 | 4.8 | 16.1 | 0.00 | 0.00 | 0.00 | 58 | 1013.9 |
| 20260508141553 | 14 | 202 | 4.8 | 16.1 | 0.00 | 0.00 | 0.00 | 57 | 1014.0 |
| 20260508140038 | 13 | 207 | 1.6 | 11.3 | 0.00 | 0.00 | 0.00 | 58 | 1014.2 |
| 20260508134536 | 13 | 223 | 6.4 | 17.7 | 0.00 | 0.00 | 0.00 | 58 | 1014.3 |
| 20260508133032 | 12 | 171 | 1.6 | 11.3 | 0.00 | 0.00 | 0.00 | 61 | 1014.3 |
| 20260508131528 | 12 | 207 | 4.8 | 11.3 | 0.00 | 0.00 | 0.00 | 63 | 1014.3 |
| 20260508130032 | 11 | 163 | 0.0 | 1.6 | 0.00 | 0.00 | 0.00 | 68 | 1014.2 |
| 20260508124518 | 10 | 138 | 0.0 | 0.0 | 0.00 | 0.00 | 0.00 | 72 | 1014.1 |
| 20260508123017 | 9 | 129 | 0.0 | 0.0 | 0.00 | 0.00 | 0.00 | 74 | 1014.1 |
| 20260508121513 | 8 | 132 | 0.0 | 0.0 | 0.00 | 0.00 | 0.00 | 76 | 1014.1 |
| 20260508120012 | 7 | 121 | 0.0 | 0.0 | 0.00 | 0.00 | 0.00 | 79 | 1014.3 |
| 20260508114511 | 7 | 202 | 0.0 | 0.0 | 0.00 | 0.00 | 0.00 | 81 | 1014.1 |
| 20260508113011 | 7 | 202 | 0.0 | 0.0 | 0.00 | 0.00 | 0.00 | 83 | 1013.9 |
| 20260508111510 | 6 | 202 | 0.0 | 0.0 | 0.00 | 0.00 | 0.00 | 84 | 1013.8 |
| 20260508110009 | 6 | 202 | 0.0 | 0.0 | 0.00 | 0.00 | 0.00 | 85 | 1013.7 |
| 20260508104507 | 6 | 202 | 0.0 | 0.0 | 0.00 | 0.00 | 0.00 | 87 | 1013.7 |
| 20260508103010 | 6 | 202 | 0.0 | 0.0 | 0.00 | 0.00 | 0.00 | 88 | 1013.5 |
| 20260508101505 | 6 | 202 | 0.0 | 0.0 | 0.00 | 0.00 | 0.00 | 89 | 1013.6 |
| 20260508100005 | 5 | 202 | 0.0 | 0.0 | 0.00 | 0.00 | 0.00 | 89 | 1013.7 |
| 20260508094503 | 5 | 202 | 0.0 | 0.0 | 0.00 | 0.00 | 0.00 | 88 | 1013.6 |
| 20260508093005 | 5 | 202 | 0.0 | 0.0 | 0.00 | 0.00 | 0.00 | 87 | 1013.8 |
| 20260508091507 | 5 | 202 | 0.0 | 0.0 | 0.00 | 0.00 | 0.00 | 87 | 1013.9 |
| 20260508090008 | 5 | 202 | 0.0 | 0.0 | 0.00 | 0.00 | 0.00 | 87 | 1013.9 |
| 20260508084501 | 5 | 202 | 0.0 | 0.0 | 0.00 | 0.00 | 0.00 | 87 | 1013.9 |
| 20260508083105 | 5 | 202 | 0.0 | 0.0 | 0.00 | 0.00 | 0.00 | 85 | 1013.7 |
| 20260508081610 | 5 | 202 | 0.0 | 0.0 | 0.00 | 0.00 | 0.00 | 84 | 1013.9 |
| 20260508080056 | 5 | 202 | 0.0 | 0.0 | 0.00 | 0.00 | 0.00 | 82 | 1013.8 |
| 20260508074553 | 5 | 202 | 0.0 | 0.0 | 0.00 | 0.00 | 0.00 | 81 | 1013.6 |
| 20260508073050 | 6 | 202 | 0.0 | 0.0 | 0.00 | 0.00 | 0.00 | 78 | 1013.6 |
| 20260508071548 | 6 | 202 | 0.0 | 0.0 | 0.00 | 0.00 | 0.00 | 77 | 1013.7 |
| 20260508070044 | 7 | 202 | 0.0 | 0.0 | 0.00 | 0.00 | 0.00 | 74 | 1014.0 |
| 20260508064543 | 7 | 202 | 0.0 | 0.0 | 0.00 | 0.00 | 0.00 | 73 | 1014.0 |
| 20260508063056 | 7 | 202 | 0.0 | 0.0 | 0.00 | 0.00 | 0.00 | 73 | 1014.2 |
| 20260508061539 | 7 | 202 | 0.0 | 0.0 | 0.00 | 0.00 | 0.00 | 73 | 1014.3 |
| 20260508060038 | 7 | 202 | 0.0 | 0.0 | 0.00 | 0.00 | 0.00 | 74 | 1014.3 |
| 20260508054536 | 7 | 202 | 0.0 | 0.0 | 0.00 | 0.00 | 0.00 | 72 | 1014.3 |
| 20260508053033 | 7 | 202 | 0.0 | 0.0 | 0.00 | 0.00 | 0.00 | 70 | 1014.4 |
| 20260508051532 | 7 | 202 | 0.0 | 0.0 | 0.00 | 0.00 | 0.00 | 70 | 1014.4 |
| 20260508050036 | 7 | 202 | 0.0 | 0.0 | 0.00 | 0.00 | 0.00 | 70 | 1014.3 |
| 20260508044530 | 7 | 202 | 0.0 | 0.0 | 0.00 | 0.00 | 0.00 | 71 | 1014.3 |
| 20260508043034 | 8 | 202 | 0.0 | 0.0 | 0.00 | 0.00 | 0.00 | 71 | 1014.2 |
| 20260508041526 | 8 | 202 | 0.0 | 0.0 | 0.00 | 0.00 | 0.00 | 71 | 1014.1 |
| 20260508040033 | 8 | 202 | 0.0 | 0.0 | 0.00 | 0.00 | 0.00 | 68 | 1014.1 |
| 20260508034523 | 9 | 202 | 0.0 | 0.0 | 0.00 | 0.00 | 0.00 | 65 | 1014.1 |
| 20260508033022 | 9 | 202 | 0.0 | 0.0 | 0.00 | 0.00 | 0.00 | 64 | 1014.1 |
| 20260508031521 | 10 | 202 | 0.0 | 0.0 | 0.00 | 0.00 | 0.00 | 62 | 1014.0 |
| 20260508030025 | 10 | 203 | 0.0 | 0.0 | 0.00 | 0.00 | 0.00 | 62 | 1014.1 |
| 20260508024520 | 10 | 203 | 0.0 | 0.0 | 0.00 | 0.00 | 0.00 | 62 | 1014.0 |
| 20260508023020 | 9 | 180 | 0.0 | 0.0 | 0.00 | 0.00 | 0.00 | 64 | 1013.8 |